Ana Sayfa
METAR-TAF:

METAR-TAF

Havaalanları :

Wooster, Ohio, Amerika Birleşik Devletleri

Enlem: 40-52-23N, Boylam: 081-53-12W, yükseklik: 346 m

Güncel hava durumu gözlemi

Rapor saat 16:56 UTC de 29 dakika önce yapıldı.
Rüzgar güneybatıdan 6 kt
Sıcaklık -4°C
Nem 68%
Basınç 1023 hPa
Görüş mesafesi: 16.1 km
Açık gökyüzü

METAR: KBJJ 071656Z AUTO 23006KT 10SM CLR M04/M09 A3022 RMK AO2 SLP248 T10391094

Saat: 12:25 (17:25 UTC)


TAF: eksik

4.000'den fazla havaalanı için hava durumu gözlemleri ve tahminleri (METAR ve TAF raporları).

Kullanılabilir istasyonlar harita üzerinde sarı ve kırmızı noktalarla gösterilir.

İstasyonun adını görmek için fareyi noktanın üzerinde gezdirin.

Sonrasında hava gözlem ve tahminlerini görmek için tıklayın.

Haritayı değiştirmek için: yaklaştırmak için siyah artı işaretli yeşil düğmeye ve uzaklaştırmak için de eksi işaretli düğmeye hızla tıklayın; bitişik haritalar için yeşil okları kullanın.


METAR-TAF: